Location: Bílinka
(49.3579°N, 14.3767°E)
Time: 05:37:35
(UTC+00:00)

PSLV R/B - Pass Details

Date: 29 April 2024
Orbit: 467 x 522 km, 97.7° (Epoch: 19 May)

Event Time Altitude Azimuth Distance (km) Brightness Sun altitude
Rises 19:58:49 0° 206° (SSW) 2,637 7.1 -14.4°
Reaches altitude 10° 20:01:31 10° 227° (SW) 1,763 6.4 -14.8°
Maximum altitude 20:04:02 17° 269° (W) 1,390 6.4 -15.0°
Drops below altitude 10° 20:06:35 10° 311° (NW) 1,782 7.8 -15.3°
Sets 20:09:20 0° 332° (NNW) 2,679 8.9 -15.6°
